Location: *
(51.2167°N, 10.0667°E)
Time: 12:31:01
(UTC+00:00)

STARLINK-60 - Pass Details

Date: 12 December 2019
Orbit: 411 x 419 km, 53.0° (Epoch: 24 January)

Event Time Altitude Azimuth Distance (km) Brightness Sun altitude
Rises 17:39:52 0° 251° (WSW) 2,383 8.4 -21.8°
Reaches altitude 10° 17:41:58 10° 252° (WSW) 1,517 7.0 -22.2°
Enters shadow 17:44:44 56° 252° (WSW) 511 3.7 -22.6°
